Meteopurmerend
purmerend
Purmerend - Baaienwijk



My webcam  My webcam


waarschuwing voor Onweer Meer informatie blitzortung!


Regen radar Meer informatie rain snow radar


Bezoek onze andere website:

CandyAppleRed WebdesignWebdesign Purmerend Candy Apple Red

MeteopurmerendBlog

Template documentation
and downloads



Onweer van: 26-07-2021 15:00 tot: 21:00 waarschuwing voor: Onweer niveau: Geel info button
Enkele onweersbuien, lokaal met hagel en veel neerslag in korte tijd.Kans op blikseminslag, hagel en veel neerslag in korte tijd.Verkeer en buitenactiviteiten kunnen hinder ondervinden.Mijd open water en open gebied, schuil niet onder bomen.Volg weerberichten en waarschuwingen.

15 daagse weersverwachting Swansea (GB)

  • Overzicht
  • Per uur
  • 15 dagen
  • Extra
  • Vergelijk
  • Kaarten
  • Dagkaart
  • Meer »
  • Info
  • Statistieken
  • Directe link
    Temp 6h Neerslag Wind  
 05:33     21:13    Daglengte: 15:40 Vandaag
19:00
19°
 
4
 05:34     21:11    Daglengte: 15:37 Morgen
01:00
17°
0.5 mm
3
07:00
17°
2.8 mm
2
13:00
18°
0.5 mm
2
19:00
18°
2.3 mm
4
 05:36     21:10    Daglengte: 15:34 Woensdag 28 Jul
01:00
16°
0.9 mm
4
07:00
15°
 
3
13:00
17°
8.4 mm
7
19:00
16°
16.5 mm
6
 05:37     21:08    Daglengte: 15:31 Donderdag 29 Jul
01:00
15°
6.3 mm
5
07:00
13°
 
6
13:00
18°
 
5
Locatie info
Region: Wales
Latitude: 51.6231°N
Longitude: -3.9409°E
18 masl
Postcode: SA1 2
Temp/Neerslag /Baro Onweer/Dauwpunt
    Temp Baro 1h Neerslag Dauwpunt Wind UV Bewolking  
 05:33     21:13    Daglengte: 15:40 Vandaag
16:00
20°
1009.9 hPa
12%
16.3°
5
Windvlaag: 6.7 m/s
46%
17:00
20°
1009.7 hPa   16.3°
5
Windvlaag: 5.8 m/s
61%
18:00
19°
1009.7 hPa   16.3°
5
Windvlaag: 4.4 m/s
76%
19:00
19°
1009.4 hPa   16.3°
4
Windvlaag: 5 m/s
84%
20:00
18°
1009.7 hPa
11%
16.4°
4
Windvlaag: 4.8 m/s
80%
21:00
18°
1009.8 hPa
54%
16.5°
3
Windvlaag: 3 m/s
83%
22:00
18°
1010.0 hPa
58%
16.8°
2
Windvlaag: 2.7 m/s
86%
23:00
18°
1009.7 hPa
67%
17.1°
2
Windvlaag: 1.9 m/s
85%
 05:34     21:11    Daglengte: 15:37 Morgen
00:00
18°
1009.6 hPa 0.1 mm
76%
17.0°
3
Windvlaag: 4.4 m/s
84%
01:00
17°
1009.4 hPa 0.3 mm
82%
16.6°
3
Windvlaag: 4.4 m/s
86%
02:00
17°
1009.2 hPa
82%
16.5°
4
Windvlaag: 4.4 m/s
84%
03:00
17°
1008.7 hPa 0.5 mm
82%
16.3°
3
Windvlaag: 4.6 m/s
76%
04:00
17°
1008.2 hPa 0.8 mm
82%
16.3°
2
Windvlaag: 3.6 m/s
82%
05:00
17°
1007.8 hPa 0.9 mm
82%
16.2°
2
Windvlaag: 3.6 m/s
84%
06:00
17°
1007.6 hPa 0.5 mm
80%
16.1°
2
Windvlaag: 3.4 m/s
84%
07:00
17°
1007.6 hPa
69%
15.9°
2
Windvlaag: 3.3 m/s
82%
08:00
17°
1007.4 hPa 0.5 mm
73%
15.7°
2
Windvlaag: -0.1 m/s
83%
09:00
17°
1007.5 hPa
76%
15.4°
2
Windvlaag: -0.5 m/s
85%
10:00
17°
1007.4 hPa
76%
15.0°
2
Windvlaag: 1 m/s
84%
11:00
18°
1007.4 hPa
74%
14.4°
2
Windvlaag: 2 m/s
78%
12:00
18°
1007.3 hPa
72%
13.6°
2
Windvlaag: 2.7 m/s
81%
13:00
18°
1007.2 hPa
71%
12.8°
2
Windvlaag: 3.8 m/s
70%
14:00
18°
1006.9 hPa
72%
12.7°
2
Windvlaag: 4 m/s
69%
15:00
19°
1006.7 hPa
77%
13.8°
2
Windvlaag: 2.9 m/s
61%
16:00
19°
1006.5 hPa
76%
14.5°
3
Windvlaag: -1 m/s
63%
17:00
19°
1006.6 hPa 0.7 mm
72%
13.9°
3
Windvlaag: -0.1 m/s
55%
18:00
19°
1006.7 hPa 0.8 mm
80%
13.8°
4
Windvlaag: 1 m/s
66%
19:00
18°
1006.7 hPa 0.8 mm
82%
15.1°
4
Windvlaag: 1.4 m/s
23%
20:00
17°
1007.0 hPa 0.9 mm
81%
15.1°
4
Windvlaag: 1.2 m/s
38%
21:00
17°
1007.2 hPa
74%
15.1°
3
Windvlaag: 1.6 m/s
19%
22:00
16°
1007.8 hPa
22%
14.7°
5
Windvlaag: -2.6 m/s
26%
23:00
16°
1008.0 hPa
65%
14.3°
5
Windvlaag: -1.9 m/s
40%
 05:36     21:10    Daglengte: 15:34 Woensdag 28 Jul
00:00
16°
1008.0 hPa
38%
14.1°
4
Windvlaag: -1.9 m/s
47%
01:00
16°
1007.9 hPa
34%
14.0°
4
Windvlaag: -1.4 m/s
19%
02:00
16°
1007.7 hPa
35%
13.9°
4
Windvlaag: -1.5 m/s
16%
03:00
15°
1007.6 hPa
29%
13.8°
4
Windvlaag: -2.1 m/s
14%
04:00
15°
1007.4 hPa
66%
13.6°
3
Windvlaag: -1.4 m/s
13%
05:00
15°
1007.5 hPa
70%
13.7°
3
Windvlaag: -0.8 m/s
12%
06:00
15°
1007.6 hPa
72%
13.5°
3
Windvlaag: -0.5 m/s
13%
07:00
15°
1007.6 hPa
75%
13.2°
3
Windvlaag: 0.2 m/s
19%
08:00
16°
1007.7 hPa
75%
12.7°
3
Windvlaag: 0.3 m/s
17%
09:00
16°
1007.8 hPa 1.4 mm
79%
12.5°
3
Windvlaag: 3.6 m/s
22%
10:00
16°
1006.8 hPa 1.3 mm
100%
14.7°
4
Windvlaag: 4.9 m/s
66% warningclass
11:00
16°
1006.5 hPa 1.7 mm
100%
13.8°
6
Windvlaag: 4.5 m/s
83%
12:00
16°
1006.3 hPa 2.0 mm
100%
14.8°
5
Windvlaag: 5.5 m/s
65%
13:00
17°
1006.0 hPa 2.1 mm
100%
12.1°
7
Windvlaag: 7.2 m/s
65%
14:00
17°
1005.9 hPa 2.0 mm
100%
10.9°
8
Windvlaag: 5.3 m/s
55%
15:00
17°
1005.9 hPa 2.0 mm
100%
9.6°
8
Windvlaag: 6.1 m/s
46%
16:00
17°
1005.8 hPa 1.9 mm
100%
10.1°
8
Windvlaag: 5.7 m/s
37%
17:00
17°
1005.6 hPa 3.5 mm
100%
9.9°
7
Windvlaag: 4.6 m/s
27%
18:00
17°
1005.5 hPa 3.6 mm
100%
10.1°
7
Windvlaag: 5.5 m/s
45%
19:00
16°
1005.6 hPa 3.5 mm
48%
11.7°
6
Windvlaag: 3.4 m/s
57%
20:00
16°
1005.6 hPa 3.2 mm
41%
12.1°
6
Windvlaag: 3.4 m/s
43% warningclass
21:00
16°
1006.0 hPa 3.1 mm
38%
11.1°
5
Windvlaag: 0.8 m/s
1%
22:00
15°
1006.4 hPa
41%
12.4°
5
Windvlaag: 0.9 m/s
5%
23:00
15°
1006.6 hPa
36%
11.7°
5
Windvlaag: 0.6 m/s
4%
 05:37     21:08    Daglengte: 15:31 Donderdag 29 Jul
00:00
15°
1006.8 hPa
40%
11.3°
6
Windvlaag: 0.4 m/s
11%
01:00
15°
1007.0 hPa
40%
13.2°
5
Windvlaag: 0.5 m/s
15%
02:00
14°
1007.1 hPa
40%
12.9°
4
Windvlaag: 0.2 m/s
12%
03:00
14°
1007.2 hPa
31%
13.0°
4
Windvlaag: 0 m/s
11%
04:00
14°
1007.6 hPa
32%
12.8°
5
Windvlaag: 0.3 m/s
15%
05:00
13°
1007.9 hPa
31%
12.8°
4
Windvlaag: -0.2 m/s
15%
06:00
13°
1008.3 hPa
30%
12.3°
5
Windvlaag: 0.1 m/s
10%
07:00
13°
1008.7 hPa
35%
11.8°
6
Windvlaag: -0.4 m/s
9%
08:00
14°
1009.2 hPa
81%
12.2°
2
Windvlaag: 13.4 m/s
19%
09:00
16°
1009.4 hPa
36%
12.9°
4
Windvlaag: 12.6 m/s
19%
10:00
17°
1009.5 hPa
39%
12.6°
5
Windvlaag: 11.4 m/s
19%
11:00
17°
1009.6 hPa
38%
12.0°
5
Windvlaag: 10.3 m/s
20%
12:00
18°
1009.5 hPa
36%
12.0°
5
Windvlaag: 9.7 m/s
79%
13:00
18°
1009.5 hPa
35%
12.7°
5
Windvlaag: 9.9 m/s
73%
Temp/Neerslag /Baro Onweer/Dauwpunt
    Temp Baro Neerslag Dauwpunt Wind Bewolking  
 05:33     21:13    Daglengte: 15:40 Vandaag
16:00
20°
1009.9 hPa   16.3°
5
46%
19:00
19°
1009.4 hPa   16.3°
4
84%
22:00
18°
1010.0 hPa   16.8°
2
86%
 05:34     21:11    Daglengte: 15:37 Morgen
01:00
17°
1009.4 hPa 0.5 mm 16.6°
3
86%
04:00
17°
1008.2 hPa 1.4 mm 16.3°
2
82%
07:00
17°
1007.6 hPa 1.4 mm 15.9°
2
82%
10:00
17°
1007.4 hPa 0.5 mm 15.0°
2
84%
13:00
18°
1007.2 hPa   12.8°
2
70%
16:00
19°
1006.5 hPa   14.5°
3
63%
19:00
18°
1006.7 hPa 2.3 mm 15.1°
4
23%
22:00
16°
1007.8 hPa 0.9 mm 14.7°
5
26%
 05:36     21:10    Daglengte: 15:34 Woensdag 28 Jul
01:00
16°
1007.9 hPa   14.0°
4
19%
04:00
15°
1007.4 hPa   13.6°
3
13%
07:00
15°
1007.6 hPa   13.2°
3
19%
10:00
16°
1006.8 hPa 2.6 mm 14.7°
4
66% warningclass
13:00
17°
1006.0 hPa 5.8 mm 12.1°
7
65%
16:00
17°
1005.8 hPa 5.9 mm 10.1°
8
37%
19:00
16°
1005.6 hPa 10.5 mm 11.7°
6
57%
22:00
15°
1006.4 hPa 6.3 mm 12.4°
5
5%
 05:37     21:08    Daglengte: 15:31 Donderdag 29 Jul
01:00
15°
1007.0 hPa   13.2°
5
15%
04:00
14°
1007.6 hPa   12.8°
5
15%
07:00
13°
1008.7 hPa   11.8°
6
9%
10:00
17°
1009.5 hPa   12.6°
5
19%
13:00
18°
1009.5 hPa   12.7°
5
73%
16:00
17°
1010.9 hPa 17.2 mm 11.3°
7
0%
19:00
17°
1011.0 hPa 17.2 mm 11.5°
6
1%
22:00
14°
1011.0 hPa 17.2 mm 10.0°
3
1%
 05:39     21:07    Daglengte: 15:28 Vrijdag 30 Jul
01:00
14°
1010.3 hPa 17.2 mm 10.5°
2
1%
04:00
14°
1008.4 hPa 18.6 mm 11.3°
3
1%
07:00
14°
1005.9 hPa 22.0 mm 12.4°
7
1%
10:00
15°
1003.8 hPa 25.4 mm 14.1°
9
1%
13:00
16°
1001.4 hPa 27.7 mm 12.0°
8
1%
16:00
18°
998.4 hPa 28.2 mm 12.7°
9
0%
19:00
17°
999.7 hPa 28.8 mm 12.4°
7
0%
22:00
14°
1003.4 hPa 29.1 mm 12.3°
7
0%
 05:40     21:05    Daglengte: 15:25 Zaterdag 31 Jul
01:00
14°
1005.4 hPa 30.1 mm 12.6°
8
1%
04:00
15°
1006.2 hPa 30.4 mm 12.2°
7
1%
07:00
14°
1007.5 hPa 30.4 mm 11.8°
5
1%
10:00
15°
1008.7 hPa 30.4 mm 12.0°
6
0%
13:00
16°
1009.8 hPa 30.7 mm 11.7°
7
1%
16:00
16°
1010.3 hPa 30.8 mm 11.3°
6
1%
19:00
16°
1010.5 hPa 30.8 mm 10.0°
5
1%
22:00
14°
1011.4 hPa 30.8 mm 8.2°
3
1%
 05:42     21:03    Daglengte: 15:21 Zondag 01 Aug
01:00
13°
1011.4 hPa 30.8 mm 7.9°
3
1%
04:00
13°
1011.1 hPa 30.9 mm 8.4°
4
1%
07:00
12°
1012.1 hPa 30.9 mm 8.3°
4
1%
10:00
14°
1012.9 hPa 31.0 mm 8.5°
6
1%
13:00
15°
1013.6 hPa 31.0 mm 8.2°
6
1%
16:00
16°
1014.5 hPa 31.1 mm 7.4°
6
1%
19:00
15°
1015.2 hPa 31.1 mm 7.3°
5
1%
22:00
12°
1016.5 hPa 31.1 mm 6.0°
3
0%
 05:43     21:02    Daglengte: 15:19 Maandag 02 Aug
01:00
11°
1016.7 hPa 31.1 mm 6.1°
2
0%
04:00
10°
1016.6 hPa 31.1 mm 6.1°
2
0%
07:00
12°
1016.8 hPa 31.1 mm 6.9°
1
0%
10:00
15°
1017.2 hPa 31.1 mm 9.4°
1
0%
13:00
17°
1016.9 hPa 62.1 mm 12.1°
3
0%
19:00
17°
1016.1 hPa 62.2 mm 12.0°
5
0%
 05:45     21:00    Daglengte: 15:15 Dinsdag 03 Aug
01:00
14°
1015.8 hPa 62.2 mm 11.9°
3
1%
07:00
16°
1012.8 hPa 62.8 mm 14.1°
7
1%
13:00
17°
1011.6 hPa 66.5 mm 15.4°
7
1%
19:00
17°
1009.9 hPa 69.8 mm 14.9°
9
1%
 05:46     20:58    Daglengte: 15:12 Woensdag 04 Aug
01:00
16°
1008.8 hPa 73.2 mm 12.9°
8
1%
07:00
15°
1007.9 hPa 75.5 mm 12.6°
6
1%
13:00
18°
1009.3 hPa 78.1 mm 12.9°
7
0%
19:00
17°
1009.1 hPa 78.8 mm 13.7°
7
0%
 05:48     20:56    Daglengte: 15:08 Donderdag 05 Aug
01:00
16°
1008.3 hPa 80.4 mm 12.7°
6
1%
07:00
15°
1005.8 hPa 85.3 mm 13.3°
2
1%
13:00
17°
1008.3 hPa 1.9 mm 12.2°
5
57%
19:00
17°
1007.7 hPa 1.3 mm 12.2°
5
47%
 05:49     20:55    Daglengte: 15:06 Vrijdag 06 Aug
01:00
14°
1008.5 hPa 0.5 mm 10.9°
3
47%
07:00
14°
1008.1 hPa 0.7 mm 10.7°
2
57%
13:00
16°
1008.6 hPa 1.3 mm 11.9°
4
60%
19:00
16°
1008.6 hPa 1.1 mm 11.9°
5
48%
 05:51     20:53    Daglengte: 15:02 Zaterdag 07 Aug
01:00
14°
1010.1 hPa 0.6 mm 11.0°
4
44%
07:00
14°
1010.5 hPa 0.7 mm 10.9°
4
50%
13:00
16°
1011.3 hPa 0.6 mm 11.7°
5
60%
19:00
16°
1010.8 hPa 0.7 mm 11.7°
5
53%
 05:52     20:51    Daglengte: 14:59 Zondag 08 Aug
01:00
14°
1011.5 hPa 0.6 mm 11.1°
3
57%
07:00
14°
1011.1 hPa 0.5 mm 11.2°
3
64%
13:00
16°
1011.8 hPa 0.8 mm 11.9°
5
70%
19:00
16°
1011.8 hPa 0.7 mm 11.9°
5
53%
 05:54     20:49    Daglengte: 14:55 Maandag 09 Aug
01:00
14°
1013.0 hPa 1.0 mm 10.8°
4
46%
07:00
14°
1013.4 hPa 0.8 mm 10.6°
3
60%
13:00
17°
1014.8 hPa 0.7 mm 11.8°
4
55%
19:00
16°
1014.7 hPa 0.5 mm 11.7°
4
42%
 05:56     20:47    Daglengte: 14:51 Dinsdag 10 Aug
01:00
14°
1015.8 hPa 0.7 mm 10.9°
3
52%
07:00
14°
1015.5 hPa 0.7 mm 10.9°
2
60%
13:00
16°
1015.9 hPa 0.5 mm 12.3°
3
63%
  CAPE Lifted Index Hail Supercell Tornado SRH 3km CL BTM PRES CL TOP PRES Swiss DWD icon SMHI TS
 05:33     21:13    Daglengte: 15:40 Vandaag
16:00 269 J/kg -1.6 K 0 % 0 % 0 % 0 m²/s² 0 0 1.67 3
17:00 356 J/kg -2.2 K 0 % 0 % 0 % 0 m²/s² 0 0 1.07 3
18:00 312 J/kg -1.7 K 0 % 0 % 0 % 0 m²/s² 0 0 0.91 3
19:00 161 J/kg -1.4 K 0 % 0 % 0 % 0 m²/s² 0 0 1.3 3
20:00 140 J/kg -1.4 K 0 % 0 % 0 % 0 m²/s² 0 0 1.6 3
21:00 161 J/kg -0.8 K 0 % 0 % 0 % 0 m²/s² 0 0 1.72 3
22:00 261 J/kg -0.8 K 0 % 0 % 0 % 0 m²/s² 0 0 0.97 3
23:00 406 J/kg -1.4 K 0 % 0 % 0 % 0 m²/s² 0 0 0.37 3
 05:34     21:11    Daglengte: 15:37 Morgen
00:00 424 J/kg -1.3 K 0 % 0 % 0 % 0 m²/s² 0 0 0.17 3
01:00 328 J/kg -0.5 K 0 % 0 % 0 % 0 m²/s² 0 0 0.43 80
02:00 393 J/kg -1.2 K 0 % 0 % 0 % 0 m²/s² 0 0 -0.78 3
03:00 432 J/kg -1.2 K 0 % 0 % 0 % 0 m²/s² 0 0 -0.99 80
04:00 404 J/kg -1.0 K 0 % 0 % 0 % 0 m²/s² 0 0 -0.67 61
05:00 476 J/kg -1.3 K 0 % 0 % 0 % 0 m²/s² 0 0 -1.09 61
06:00 406 J/kg -1.2 K 0 % 0 % 0 % 0 m²/s² 0 0 -1.02 61
07:00 325 J/kg -0.7 K 0 % 0 % 0 % 0 m²/s² 0 0 -0.49 3
08:00 362 J/kg -1.0 K 0 % 0 % 0 % 0 m²/s² 0 0 -0.79 3
09:00 332 J/kg -0.7 K 0 % 0 % 0 % 0 m²/s² 0 0 -0.37 61
10:00 268 J/kg -0.2 K 0 % 0 % 0 % 0 m²/s² 0 0 0.19 61
11:00 274 J/kg -0.1 K 0 % 0 % 0 % 0 m²/s² 0 0 0.23 61
12:00 213 J/kg 0.5 K 0 % 0 % 0 % 0 m²/s² 0 0 0.98 61
13:00 128 J/kg 1.1 K 0 % 0 % 0 % 0 m²/s² 0 0 1.79 61
14:00 73 J/kg 1.2 K 0 % 0 % 0 % 0 m²/s² 0 0 2.19 61
15:00 62 J/kg 1.2 K 0 % 0 % 0 % 0 m²/s² 0 0 2.43 3
16:00 43 J/kg 1.1 K 0 % 0 % 0 % 0 m²/s² 0 0 2.66 3
17:00 33 J/kg 1.4 K 0 % 0 % 0 % 0 m²/s² 0 0 2.9 80
18:00 52 J/kg 1.0 K 0 % 0 % 0 % 0 m²/s² 0 0 2.44 80
19:00 148 J/kg 0.1 K 0 % 0 % 0 % 0 m²/s² 0 0 1.27 80
20:00 106 J/kg 0.4 K 0 % 0 % 0 % 0 m²/s² 0 0 1.33 80
21:00 59 J/kg 0.7 K 0 % 0 % 0 % 0 m²/s² 0 0 1.54 2
22:00 4 J/kg 0.8 K 0 % 0 % 0 % 0 m²/s² 0 0 1.04 2
23:00 4 J/kg 0.9 K 0 % 0 % 0 % 0 m²/s² 0 0 1.23 2
 05:36     21:10    Daglengte: 15:34 Woensdag 28 Jul
00:00 5 J/kg 1.9 K 0 % 0 % 0 % 0 m²/s² 0 0 2.83 3
01:00 4 J/kg 3.1 K 0 % 0 % 0 % 0 m²/s² 0 0 4.69 2
02:00 3 J/kg 2.8 K 0 % 0 % 0 % 0 m²/s² 0 0 4.63 2
03:00 2 J/kg 2.1 K 0 % 0 % 0 % 0 m²/s² 0 0 4.26 1
04:00 19 J/kg 1.3 K 0 % 0 % 0 % 0 m²/s² 0 0 3.64 2
05:00 146 J/kg 0.8 K 0 % 0 % 0 % 0 m²/s² 0 0 3.14 2
06:00 280 J/kg -0.3 K 0 % 0 % 0 % 0 m²/s² 0 0 2.25 2
07:00 208 J/kg -0.1 K 0 % 0 % 0 % 0 m²/s² 0 0 2.09 2
08:00 263 J/kg -0.8 K 0 % 0 % 0 % 0 m²/s² 0 0 0.82 3
09:00 395 J/kg -1.6 K 0 % 0 % 0 % 0 m²/s² 0 0 -1.06 80
10:00 775 J/kg -3.2 K 0 % 0 % 0 % 0 m²/s² 0 0 -2.45 80
11:00 643 J/kg -2.8 K 0 % 0 % 0 % 0 m²/s² 0 0 -0.43 80
12:00 575 J/kg -2.3 K 0 % 0 % 0 % 0 m²/s² 0 0 -1.7 80
13:00 438 J/kg -1.8 K 0 % 0 % 0 % 0 m²/s² 0 0 0.72 80
14:00 441 J/kg -2.0 K 0 % 0 % 0 % 0 m²/s² 0 0 -0.71 80
15:00 332 J/kg -1.2 K 0 % 0 % 0 % 0 m²/s² 0 0 3.15 2
16:00 322 J/kg -1.0 K 0 % 0 % 0 % 0 m²/s² 0 0 2.09 2
17:00 300 J/kg -0.9 K 0 % 0 % 0 % 0 m²/s² 0 0 2.28 2
18:00 359 J/kg -1.3 K 0 % 0 % 0 % 0 m²/s² 0 0 0.17 2
19:00 539 J/kg -2.7 K 0 % 0 % 0 % 0 m²/s² 0 0 -1.59 2
20:00 582 J/kg -2.9 K 0 % 0 % 0 % 0 m²/s² 0 0 -2.06 2
21:00 351 J/kg -1.0 K 0 % 0 % 0 % 0 m²/s² 0 0 1.61 2
22:00 156 J/kg -0.2 K 0 % 0 % 0 % 0 m²/s² 0 0 0.49 1
23:00 180 J/kg -1.0 K 0 % 0 % 0 % 0 m²/s² 0 0 1.22 1
 05:37     21:08    Daglengte: 15:31 Donderdag 29 Jul
00:00 327 J/kg -1.9 K 0 % 0 % 0 % 0 m²/s² 0 0 -0.46 0
01:00 119 J/kg -0.1 K 0 % 0 % 0 % 0 m²/s² 0 0 1.04 1
02:00 5 J/kg 0.7 K 0 % 0 % 0 % 0 m²/s² 0 0 2.68 0
03:00 4 J/kg 0.6 K 0 % 0 % 0 % 0 m²/s² 0 0 1.83 0
04:00 0 J/kg 0.2 K 0 % 0 % 0 % 0 m²/s² 0 0 2.45 0
05:00 1 J/kg 0.9 K 0 % 0 % 0 % 0 m²/s² 0 0 3.09 1
06:00 0 J/kg 1.6 K 0 % 0 % 0 % 0 m²/s² 0 0 4.45 1
07:00 2 J/kg 1.8 K 0 % 0 % 0 % 0 m²/s² 0 0 5.16 1
08:00 18 J/kg 1.5 K 0 % 0 % 0 % 0 m²/s² 0 0 4.77 2
09:00 62 J/kg 1.2 K 0 % 0 % 0 % 0 m²/s² 0 0 4.05 2
10:00 77 J/kg 1.6 K 0 % 0 % 0 % 0 m²/s² 0 0 4.24 2
11:00 82 J/kg 2.1 K 0 % 0 % 0 % 0 m²/s² 0 0 4.68 2
12:00 71 J/kg 2.8 K 0 % 0 % 0 % 0 m²/s² 0 0 5.23 3
13:00 72 J/kg 2.5 K 0 % 0 % 0 % 0 m²/s² 0 0 4.48 3
Temp Baro Wind Neerslag
  EWN Forecast EWN WRFDA DWD ICON FMI HIRLAM MET Norway GFS
 05:33     21:13    Daglengte: 15:40 Vandaag
16:00 20.0° 1009.9 hPa 4.5 m/s 0.0 mm 21.7° 1009.2 hPa 4.9 m/s 0.0 mm 21.0° 1010.3 hPa 4.1 m/s -2.0 mm 19.8° 1009.4 hPa 4.2 m/s 0.0 mm 19.8° 1009.8 hPa 4.8 m/s
19:00 18.5° 1009.4 hPa 4.4 m/s 0.0 mm 18.1° 1008.7 hPa 4.8 m/s 0.0 mm 19.0° 1009.5 hPa 4.0 m/s 0.0 mm 18.5° 1009.3 hPa 4.5 m/s 0.0 mm 18.4° 1009.2 hPa 3.4 m/s
22:00 17.7° 1010.0 hPa 2.5 m/s 0.0 mm 16.5° 1009.5 hPa 2.3 m/s 0.0 mm 17.8° 1010.2 hPa 2.2 m/s 0.0 mm 17.6° 1009.9 hPa 2.3 m/s 0.0 mm 16.7° 1009.3 hPa 1.4 m/s
 05:34     21:11    Daglengte: 15:37 Morgen
01:00 17.2° 1009.4 hPa 3.5 m/s 0.5 mm 16.5° 1008.8 hPa 3.0 m/s 0.1 mm 17.4° 1009.4 hPa 1.6 m/s 0.4 mm 17.2° 1009.2 hPa 3.7 m/s 0.0 mm 16.0° 1009.5 hPa 3.0 m/s
04:00 16.7° 1008.2 hPa 2.1 m/s 1.4 mm 16.2° 1007.7 hPa 2.2 m/s 1.9 mm 16.3° 1008.4 hPa 2.1 m/s 2.3 mm 16.9° 1008.0 hPa 2.0 m/s 0.0 mm 15.6° 1007.9 hPa 1.7 m/s
07:00 16.6° 1007.6 hPa 1.6 m/s 1.4 mm 16.2° 1007.5 hPa 3.0 m/s 4.4 mm 16.5° 1008.0 hPa 1.3 m/s 0.9 mm 16.9° 1007.4 hPa 1.4 m/s 0.0 mm 15.9° 1007.3 hPa 1.4 m/s
10:00 17.3° 1007.4 hPa 1.7 m/s 0.5 mm 18.5° 1006.8 hPa 3.1 m/s 6.0 mm 17.1° 1007.5 hPa 1.4 m/s 0.7 mm 18.1° 1007.6 hPa 0.5 m/s 0.0 mm 15.8° 1006.9 hPa 1.2 m/s
13:00 18.1° 1007.2 hPa 2.4 m/s 0.0 mm 19.4° 1007.2 hPa 5.4 m/s 6.4 mm 17.6° 1007.2 hPa 1.0 m/s 1.0 mm 20.2° 1007.6 hPa 2.5 m/s 0.0 mm 16.3° 1007.2 hPa 3.5 m/s
16:00 19.0° 1006.5 hPa 3.1 m/s 0.0 mm 19.1° 1006.3 hPa 5.6 m/s 6.6 mm 19.2° 1006.5 hPa 2.5 m/s 0.2 mm 20.0° 1007.6 hPa 5.5 m/s 0.0 mm 17.0° 1006.8 hPa 6.1 m/s
19:00 18.0° 1006.7 hPa 4.1 m/s 2.3 mm 17.3° 1006.2 hPa 4.1 m/s 6.9 mm 18.1° 1006.7 hPa 3.4 m/s 1.2 mm 18.2° 1008.3 hPa 5.6 m/s 0.0 mm 16.8° 1006.3 hPa 5.2 m/s
22:00 16.3° 1007.8 hPa 4.5 m/s 0.9 mm 15.3° 1007.4 hPa 4.2 m/s 9.5 mm 16.9° 1007.5 hPa 2.6 m/s 0.6 mm 16.0° 1010.0 hPa 5.3 m/s 0.0 mm 15.3° 1007.3 hPa 3.4 m/s
 05:36     21:10    Daglengte: 15:34 Woensdag 28 Jul
01:00 15.7° 1007.9 hPa 3.9 m/s 0.0 mm 14.2° 1007.2 hPa 3.0 m/s 9.6 mm 16.6° 1006.8 hPa 3.3 m/s 0.0 mm 15.8° 1010.4 hPa 4.1 m/s 0.0 mm 14.9° 1007.6 hPa 6.3 m/s
04:00 15.2° 1007.4 hPa 3.1 m/s 0.0 mm 13.4° 1006.4 hPa 1.1 m/s 9.9 mm 15.3° 1006.7 hPa 1.8 m/s 0.0 mm 15.4° 1010.5 hPa 3.5 m/s 0.0 mm 13.4° 1007.3 hPa 2.9 m/s
07:00 15.2° 1007.6 hPa 2.7 m/s 0.0 mm 14.3° 1005.9 hPa 2.7 m/s 10.7 mm 14.8° 1006.9 hPa 2.5 m/s 0.7 mm 15.6° 1011.4 hPa 2.5 m/s 0.0 mm 14.5° 1006.7 hPa 2.3 m/s
10:00 16.0° 1006.8 hPa 4.3 m/s 2.6 mm 15.3° 1005.3 hPa 4.2 m/s 11.3 mm 16.1° 1007.6 hPa 3.9 m/s 1.7 mm 16.0° 1005.8 hPa 6.8 m/s
13:00 16.9° 1006.0 hPa 6.8 m/s 5.8 mm 17.1° 1004.5 hPa 6.8 m/s 20.8 mm 16.6° 1007.1 hPa 5.8 m/s 1.9 mm 15.5° 1005.8 hPa 7.9 m/s
16:00 17.3° 1005.8 hPa 8.0 m/s 5.9 mm 17.6° 1004.6 hPa 9.1 m/s 25.0 mm 17.2° 1007.5 hPa 6.2 m/s 0.5 mm 15.9° 1005.8 hPa 9.7 m/s
19:00 16.4° 1005.6 hPa 6.2 m/s 10.5 mm 15.6° 1004.4 hPa 7.6 m/s 25.3 mm 17.5° 1007.7 hPa 6.1 m/s 0.1 mm 15.1° 1005.9 hPa 9.0 m/s
22:00 15.1° 1006.4 hPa 5.2 m/s 6.3 mm 11.9° 1004.5 hPa 3.4 m/s 26.8 mm 15.6° 1008.5 hPa 5.3 m/s 0.0 mm 14.2° 1006.5 hPa 9.8 m/s
 05:37     21:08    Daglengte: 15:31 Donderdag 29 Jul
01:00 14.8° 1007.0 hPa 5.1 m/s 0.0 mm 12.8° 1004.3 hPa 5.1 m/s 29.1 mm 15.1° 1008.5 hPa 3.7 m/s 0.0 mm 13.8° 1007.8 hPa 8.6 m/s
04:00 13.6° 1007.6 hPa 4.8 m/s 0.0 mm 11.7° 1005.0 hPa 5.1 m/s 33.8 mm 13.7° 1008.8 hPa 2.0 m/s 0.0 mm 13.8° 1008.4 hPa 6.9 m/s
07:00 13.4° 1008.7 hPa 5.5 m/s 0.0 mm 12.9° 1006.8 hPa 6.4 m/s 34.0 mm 13.2° 1009.3 hPa 0.7 m/s 0.0 mm 14.1° 1009.3 hPa 5.9 m/s
10:00 16.8° 1009.5 hPa 4.8 m/s 0.0 mm 16.3° 1008.5 hPa 7.6 m/s 34.1 mm 16.9° 1009.7 hPa 4.0 m/s 0.0 mm 16.5° 1010.5 hPa 7.7 m/s
13:00 17.7° 1009.5 hPa 5.3 m/s 0.0 mm 16.7° 1010.0 hPa 6.8 m/s 34.6 mm 17.9° 1009.4 hPa 4.9 m/s 0.0 mm 17.5° 1011.0 hPa 7.9 m/s
16:00 17.4° 1010.9 hPa 7.5 m/s 17.2 mm 17.4° 1010.9 hPa 7.5 m/s 17.2 mm
19:00 16.5° 1011.0 hPa 5.7 m/s 17.2 mm 16.5° 1011.0 hPa 5.7 m/s 17.2 mm
22:00 14.3° 1011.0 hPa 2.9 m/s 17.2 mm 14.3° 1011.0 hPa 2.9 m/s 17.2 mm
 05:39     21:07    Daglengte: 15:28 Vrijdag 30 Jul
01:00 14.4° 1010.3 hPa 1.6 m/s 17.2 mm 14.4° 1010.3 hPa 1.6 m/s 17.2 mm
04:00 14.0° 1008.4 hPa 3.4 m/s 18.6 mm 14.0° 1008.4 hPa 3.4 m/s 18.6 mm
07:00 14.2° 1005.9 hPa 7.1 m/s 22.0 mm 14.2° 1005.9 hPa 7.1 m/s 22.0 mm
10:00 15.1° 1003.8 hPa 9.2 m/s 25.4 mm 15.1° 1003.8 hPa 9.2 m/s 25.4 mm
13:00 15.6° 1001.4 hPa 8.1 m/s 27.7 mm 15.6° 1001.4 hPa 8.1 m/s 27.7 mm
16:00 17.6° 998.4 hPa 8.9 m/s 28.2 mm 17.6° 998.4 hPa 8.9 m/s 28.2 mm
19:00 16.8° 999.7 hPa 6.7 m/s 28.8 mm 16.8° 999.7 hPa 6.7 m/s 28.8 mm
22:00 14.2° 1003.4 hPa 7.2 m/s 29.1 mm 14.2° 1003.4 hPa 7.2 m/s 29.1 mm
 05:40     21:05    Daglengte: 15:25 Zaterdag 31 Jul
01:00 14.2° 1005.4 hPa 8.5 m/s 30.1 mm 14.2° 1005.4 hPa 8.5 m/s 30.1 mm
04:00 14.5° 1006.2 hPa 7.1 m/s 30.4 mm 14.5° 1006.2 hPa 7.1 m/s 30.4 mm
07:00 14.1° 1007.5 hPa 5.0 m/s 30.4 mm 14.1° 1007.5 hPa 5.0 m/s 30.4 mm
10:00 15.2° 1008.7 hPa 5.8 m/s 30.4 mm 15.2° 1008.7 hPa 5.8 m/s 30.4 mm
13:00 15.6° 1009.8 hPa 6.8 m/s 30.7 mm 15.6° 1009.8 hPa 6.8 m/s 30.7 mm
16:00 16.3° 1010.3 hPa 6.4 m/s 30.8 mm 16.3° 1010.3 hPa 6.4 m/s 30.8 mm
19:00 16.5° 1010.5 hPa 4.6 m/s 30.8 mm 16.5° 1010.5 hPa 4.6 m/s 30.8 mm
22:00 14.4° 1011.4 hPa 2.8 m/s 30.8 mm 14.4° 1011.4 hPa 2.8 m/s 30.8 mm
 05:42     21:03    Daglengte: 15:21 Zondag 01 Aug
01:00 12.9° 1011.4 hPa 3.3 m/s 30.8 mm 12.9° 1011.4 hPa 3.3 m/s 30.8 mm
04:00 12.9° 1011.1 hPa 4.0 m/s 30.9 mm 12.9° 1011.1 hPa 4.0 m/s 30.9 mm
07:00 11.8° 1012.1 hPa 4.2 m/s 30.9 mm 11.8° 1012.1 hPa 4.2 m/s 30.9 mm
10:00 14.2° 1012.9 hPa 6.2 m/s 31.0 mm 14.2° 1012.9 hPa 6.2 m/s 31.0 mm
13:00 15.1° 1013.6 hPa 6.0 m/s 31.0 mm 15.1° 1013.6 hPa 6.0 m/s 31.0 mm
16:00 15.6° 1014.5 hPa 6.3 m/s 31.1 mm 15.6° 1014.5 hPa 6.3 m/s 31.1 mm
19:00 15.2° 1015.2 hPa 5.3 m/s 31.1 mm 15.2° 1015.2 hPa 5.3 m/s 31.1 mm
22:00 11.9° 1016.5 hPa 2.9 m/s 31.1 mm 11.9° 1016.5 hPa 2.9 m/s 31.1 mm
 05:43     21:02    Daglengte: 15:19 Maandag 02 Aug
01:00 10.9° 1016.7 hPa 2.2 m/s 31.1 mm 10.9° 1016.7 hPa 2.2 m/s 31.1 mm
04:00 10.5° 1016.6 hPa 2.2 m/s 31.1 mm 10.5° 1016.6 hPa 2.2 m/s 31.1 mm
07:00 11.7° 1016.8 hPa 1.4 m/s 31.1 mm 11.7° 1016.8 hPa 1.4 m/s 31.1 mm
10:00 15.2° 1017.2 hPa 1.4 m/s 31.1 mm 15.2° 1017.2 hPa 1.4 m/s 31.1 mm
13:00 17.3° 1016.9 hPa 2.6 m/s 31.1 mm 17.3° 1016.9 hPa 2.6 m/s 31.1 mm
19:00 17.0° 1016.1 hPa 4.6 m/s 31.1 mm 17.0° 1016.1 hPa 4.6 m/s 31.1 mm
 05:45     21:00    Daglengte: 15:15 Dinsdag 03 Aug
01:00 14.4° 1015.8 hPa 2.5 m/s 31.1 mm 14.4° 1015.8 hPa 2.5 m/s 31.1 mm
07:00 15.8° 1012.8 hPa 6.9 m/s 31.6 mm 15.8° 1012.8 hPa 6.9 m/s 31.6 mm
13:00 17.4° 1011.6 hPa 7.1 m/s 33.9 mm 17.4° 1011.6 hPa 7.1 m/s 33.9 mm
19:00 17.2° 1009.9 hPa 9.0 m/s 35.3 mm 17.2° 1009.9 hPa 9.0 m/s 35.3 mm
 05:46     20:58    Daglengte: 15:12 Woensdag 04 Aug
01:00 15.9° 1008.8 hPa 8.2 m/s 36.9 mm 15.9° 1008.8 hPa 8.2 m/s 36.9 mm
07:00 15.3° 1007.9 hPa 6.1 m/s 38.4 mm 15.3° 1007.9 hPa 6.1 m/s 38.4 mm
13:00 17.5° 1009.3 hPa 7.4 m/s 39.1 mm 17.5° 1009.3 hPa 7.4 m/s 39.1 mm
19:00 17.0° 1009.1 hPa 7.0 m/s 39.6 mm 17.0° 1009.1 hPa 7.0 m/s 39.6 mm
 05:48     20:56    Daglengte: 15:08 Donderdag 05 Aug
01:00 15.6° 1008.3 hPa 5.7 m/s 40.4 mm 15.6° 1008.3 hPa 5.7 m/s 40.4 mm
07:00 14.8° 1005.8 hPa 1.9 m/s 43.6 mm 14.8° 1005.8 hPa 1.9 m/s 43.6 mm
13:00 16.8° 1008.3 hPa 4.8 m/s 1.9 mm
19:00 16.6° 1007.7 hPa 4.9 m/s 1.3 mm
 05:49     20:55    Daglengte: 15:06 Vrijdag 06 Aug
01:00 14.2° 1008.5 hPa 2.8 m/s 0.5 mm
07:00 13.9° 1008.1 hPa 2.4 m/s 0.7 mm
13:00 16.3° 1008.6 hPa 4.3 m/s 1.3 mm
19:00 16.1° 1008.6 hPa 5.1 m/s 1.1 mm
 05:51     20:53    Daglengte: 15:02 Zaterdag 07 Aug
01:00 14.2° 1010.1 hPa 3.7 m/s 0.6 mm
07:00 13.8° 1010.5 hPa 3.9 m/s 0.7 mm
13:00 16.3° 1011.3 hPa 5.0 m/s 0.6 mm
19:00 16.1° 1010.8 hPa 4.9 m/s 0.7 mm
 05:52     20:51    Daglengte: 14:59 Zondag 08 Aug
01:00 14.3° 1011.5 hPa 3.4 m/s 0.6 mm
07:00 14.0° 1011.1 hPa 3.4 m/s 0.5 mm
13:00 16.3° 1011.8 hPa 4.7 m/s 0.8 mm
19:00 15.9° 1011.8 hPa 5.1 m/s 0.7 mm
 05:54     20:49    Daglengte: 14:55 Maandag 09 Aug
01:00 14.0° 1013.0 hPa 3.6 m/s 1.0 mm
07:00 13.6° 1013.4 hPa 3.0 m/s 0.8 mm
13:00 16.6° 1014.8 hPa 4.4 m/s 0.7 mm
19:00 16.0° 1014.7 hPa 4.1 m/s 0.5 mm
 05:56     20:47    Daglengte: 14:51 Dinsdag 10 Aug
01:00 14.1° 1015.8 hPa 2.6 m/s 0.7 mm
07:00 13.9° 1015.5 hPa 2.2 m/s 0.7 mm
13:00 16.5° 1015.9 hPa 3.4 m/s 0.5 mm
FMI Hirlam - 7.5 km EWN WRFDA - 12 km DWD ICON - 7 km GFS - 25 km Basiskaart






























































Updatetijd (Europe/Amsterdam) Resolutie Lengte Stap
FMI Hirlam 14:00, 20:00, 02:00, 08:00 7.5 km 49h 1h
EWN WRFDA 16:30, 22:30, 04:30, 10:30 12 km 73h 1h
DWD ICON 11:45, 17:45, 23:45, 05:45 7 km 75h 1h
GFS